Resoconti di bolidi

Nov 01, 2022 - Nov 30, 2022
Trovati resoconti: 6790  in November 2022  Pagina 2 / 136
IDDate e tempo T.U. (Tempo Universale)Data e tempo localeRegioneCittàStatoDur.MagnitudineSuono differitoSuono contemporaneoFrag.OsservatoreLivello di esperienza
Evento 9568-2022
9568l2022-12-01 04:02 UT2022-11-30 20:02 PSTUS RenoNV≈7,5s -15---EmilyH 4
9568m2022-12-01 04:03 UT2022-11-30 20:03 PSTUS CA≈7,5s -6--ScottH 3
9568n2022-12-01 04:03 UT2022-11-30 20:03 PSTUS SparksNV≈3,5s -22?-LindseyR 1
9568o2022-12-01 04:02 UT2022-11-30 20:02 PSTUS SparksNV≈3,5s -18--?TrevorS 2
9568p2022-12-01 04:20 UT2022-11-30 20:20 PSTUS RenoNV>60s -13-?-CasperA 2
9568q2022-12-01 04:10 UT2022-11-30 20:10 PSTUS SparksNV≈20s -27??Wendy G 1
9568r2022-12-01 04:00 UT2022-11-30 20:00 PSTUS Lemmon Valley-Golden ValleyNV≈1,5s -16--Mike D 2
9568s2022-12-01 04:04 UT2022-11-30 20:04 PSTUS FallonNV≈20s -13--SabrinaA 1
9568t2022-12-01 04:05 UT2022-11-30 20:05 PSTUS PlacervilleCA≈3,5s -17---David J 1
9568u2022-12-01 04:05 UT2022-11-30 20:05 PSTUS KingsburyNV≈1,5s -20---LinaM 2
9568v2022-12-01 04:05 UT2022-11-30 20:05 PSTUS Santa ClaraCA≈3,5s -13??-PaulB 3
9568w2022-12-01 04:04 UT2022-11-30 20:04 PSTUS Gardnerville RanchosNV≈7,5s -13--GaryO 3
9568x2022-12-01 04:04 UT2022-11-30 20:04 PSTUS RenoNV≈1,5s -8--DanielleV 1
9568y2022-12-01 04:05 UT2022-11-30 20:05 PSTUS SparksNV≈7,5s -11--?OswaldoP 1
9568z2022-12-01 04:05 UT2022-11-30 20:05 PSTUS DaytonNV≈7,5s -7--ThomasH 4
Evento 9567-2022
9567c2022-12-01 04:00 UT2022-11-30 20:00 PSTUS MariposaCA≈3,5s -20---LisaS 3
9567d2022-12-01 04:05 UT2022-11-30 20:05 PSTUS CA≈7,5s -14---LisaH 2
9567e2022-12-01 04:03 UT2022-11-30 20:03 PSTUS BridgeportCA≈3,5s -9???MikeP 1
Evento 9566-2022
9566a2022-12-01 03:20 UT2022-11-30 22:20 ESTUS Rock HillSC≈1,5s -7---TessP 1
9566b2022-12-01 03:30 UT2022-11-30 22:30 ESTUS ReidsvilleNC≈3,5s -4---MadisonH 1
9566c2022-12-01 03:32 UT2022-11-30 22:32 ESTUS MatthewsNC≈1,5s 0-?nathan D 2
9566d2022-12-01 03:30 UT2022-11-30 22:30 ESTUS HuntersvilleNC≈3,5s -24--SandyM 1
Evento 9565-2022
9565a2022-12-01 03:20 UT2022-11-30 22:20 ESTUS KnoxvilleTN≈3,5s -9--MichaelB 2
9565b2022-12-01 03:00 UT2022-11-30 22:00 ESTUS AshevilleNC≈1,5s -7--TimR 3
Evento 9564-2022
9564a2022-12-01 02:59 UT2022-11-30 19:59 MSTUS AZ<1s -7---ChrisD 4
9564b2022-12-01 02:59 UT2022-11-30 18:59 PSTUS OlanchaCA≈1,5s -7??-MikeL 4
9564c2022-12-01 03:00 UT2022-11-30 19:00 PSTUS TehachapiCA≈3,5s 0???MatS 2
Evento 9563-2022
9563a2022-12-01 02:38 UT2022-11-30 21:38 ESTUS NY≈1,5s -4---ElizabethB 3
9563b2022-12-01 03:11 UT2022-11-30 22:11 ESTUS DeWittVA<1s -6---KurtisJ 3
Evento 9562-2022
9562a2022-12-01 02:22 UT2022-11-30 18:22 PSTCA NanaimoBritish Columbia≈1,5s -7--ShaunR 3
Evento 9561-2022
9561a2022-12-01 01:07 UT2022-11-30 20:07 ESTUS ChesterVA≈1,5s -8--RalphR 2
9561b2022-12-01 01:12 UT2022-11-30 20:12 ESTUS BridgetonNJ≈1,5s -9---KeithM 3
9561c2022-12-01 01:14 UT2022-11-30 20:14 ESTUS WilmingtonDE≈3,5s -16---DebbiC 3
9561d2022-12-01 01:30 UT2022-11-30 20:30 ESTUS LovelandOH≈20s -12---VictoriaV 3
Evento 9560-2022
9560a2022-12-01 01:03 UT2022-11-30 20:03 ESTUS DurhamNC≈1,5s -6--?SuzanneS 1
9560b2022-12-01 01:05 UT2022-11-30 20:05 ESTUS ForestVA≈7,5s 0--?KR 1
Evento 9559-2022
9559a2022-12-01 00:55 UT2022-11-30 21:55 -3 fusi orari BR São Paulo≈3,5s -7---Cláudio L 3
9559b2022-12-01 01:38 UT2022-11-30 22:38 -3 fusi orari BR Rio Grande do Sul≈3,5s -9---Tifani B 2
Evento 9558-2022
9558a2022-11-30 23:45 UT2022-11-30 18:45 ESTUS PA≈7,5s -20---AddyP 1
9558c2022-11-30 23:45 UT2022-11-30 18:45 ESTUS CirclevilleOH≈3,5s -8---RonnieH 1
Evento 9557-2022
9557a2022-11-30 12:31 UT2022-11-30 04:31 PSTUS OlanchaCA≈1,5s -7??-MikeL 4
Evento 9556-2022
9556a2022-11-30 15:20 UT2022-11-30 16:20 CETLI ≈1,5s -9---MonikaK 1
Evento 9555-2022
9555a2022-11-30 05:39 UT2022-11-29 21:39 PSTUS PaicinesCA≈1,5s -5---MarianneG 4
Evento 9553-2022
9553a2022-11-30 08:32 UT2022-11-30 02:32 CSTUS MO≈1,5s -8---KeniT 2
Evento 9552-2022
9552a2022-11-29 12:43 UT2022-11-29 05:43 MSTUS Grand JunctionCO≈3,5s -17???DeniseB 1
Evento 9551-2022
9551a2022-11-12 02:07 UT2022-11-11 20:07 CSTUS HoustonTX≈3,5s -13--?StevenF 2
Evento 9550-2022
9550a2022-11-30 15:30 UT2022-11-30 15:30 WETES Arrefice de LanzaroteCanarias≈3,5s 0---PaulR 1
9550b2022-11-30 15:50 UT2022-11-30 15:50 WETES CandelariaCanarias≈1,5s -5---RamónN 1
Evento 9549-2022
9549a2022-11-30 11:32 UT2022-11-30 05:32 CSTUS DoniphanNE≈1,5s -7---SaraM 2
Evento 9548-2022
9548a2022-11-28 22:23 UT2022-11-29 11:23 NZDTNZ ŌmāpereNorthland≈3,5s -12?KatieG 2